[Date Prev][Date Next][Thread Prev][Thread Next] - [Date Index][Thread Index][Author Index]
KEPS
- Subject: [sarex] KEPS
- From: "ARTHUR Z. ROWE" <N1ORC@xxxxxxxxxxxx>
- Date: Mon, 08 Aug 2005 11:30:15 -0400
- User-Agent: Mozilla Thunderbird 1.0 (Windows/20041206)
ISS (ZARYA)
1 25544U 98067A 05220.43556375 .00029014 00000-0 22515-3 0 1038
2 25544 51.6440 353.3879 0000502 175.9256 292.7706 15.71559057383903
STS 114
1 28775U 05026A 05220.50182753 .00030468 00000-0 23121-3 0 413
2 28775 51.6455 353.0424 0004705 174.7824 312.7709 15.72053741 2036
----
Via the sarex mailing list at AMSAT.ORG courtesy of AMSAT-NA.
To unsubscribe, send "unsubscribe sarex" to Majordomo@amsat.org
AMSAT Home